[[{"header":{"parameterUnit":"m.s-1","parameterCategory":1,"la1":30.2991,"la2":30.254,"lo1":-89.0895,"lo2":-89.0444,"dy":0.0017,"dx":0.0017,"nx":28,"ny":28,"refTime":"2025-05-24T21:00:00:Z","depth":0,"parameterNumber":2,"parameterNumberName":"U-component_of_WINDS"},"data":[0,0,0,0,0,0,0,0,0,0,0,0,0,0,0,0,0,0,0,0,0,0,0,0,0,0,0,0,0,0,0,0,0,0,0,0,0,0,0,0,0,0,0,0,0,0,0,0,0,0,0,0,0,0,0,0,0,0,0.3047,0.3048,0,0.3107,0.3107,0.3108,0.3127,0.3127,0.3127,0.3126,0.3189,0.319,0.3192,0,0,0,0,0,0,0,0,0,0,0,0,0,0.2951,0.2952,0.3047,0.3048,0.3049,0.3107,0.3107,0.3108,0.3127,0.3127,0.3127,0.3126,0.3188,0.319,0.3192,0,0,0,0,0,0,0,0,0,0,0,0,0,0.2999,0.2953,0.3047,0.3065,0.3067,0.3106,0.3107,0.3108,0.3127,0.3127,0.3127,0.3126,0.3187,0.319,0.3193,0.3219,0,0,0.3202,0.3203,0,0,0,0,0,0,0,0,0.2997,0.3003,0.3062,0.3064,0.3066,0.3109,0.3096,0.3145,0.3127,0.3105,0.3126,0.3126,0.3163,0.3167,0.3179,0.3221,0.3224,0.3202,0.3204,0.3205,0.3206,0,0,0,0,0,0,0,0.2993,0.3001,0.3071,0.3062,0.3065,0.307,0.3077,0.3106,0.3135,0.3107,0.3108,0.3115,0.3164,0.3177,0.3181,0.3225,0.3202,0.3204,0.3206,0.3207,0.3291,0.3291,0,0,0,0,0,0,0.2987,0.2998,0.3069,0.3072,0.303,0.3072,0.308,0.3096,0.3135,0.314,0.3115,0.3115,0.3172,0.3178,0.3183,0.3216,0.3205,0.3207,0.3209,0.329,0.3291,0.3291,0,0,0,0,0,0,0.2985,0.2993,0.3066,0.3035,0.3045,0.3075,0.3092,0.3097,0.311,0.3141,0.3147,0.3123,0.3172,0.3179,0.3209,0.3218,0.3209,0.3211,0.329,0.3291,0.3291,0.3281,0,0,0,0,0,0,0.2982,0.2992,0.3002,0.3036,0.3047,0.3091,0.3093,0.3099,0.3115,0.3116,0.315,0.3155,0.3172,0.3205,0.3212,0.3222,0.3214,0.3289,0.329,0.3291,0.3281,0.3281,0.3282,0,0,0,0,0,0.2978,0.2997,0.3002,0.3011,0.306,0.3092,0.3098,0.3117,0.3115,0.3126,0.3146,0.3154,0.3216,0.3208,0.3216,0.3227,0.3289,0.329,0.3291,0.3281,0.3281,0.3282,0,0,0,0,0,0,0.2964,0.3002,0.3008,0.3038,0.3062,0.3095,0.3108,0.3117,0.3142,0.3142,0.3164,0.3172,0.32,0.3217,0.3207,0.3254,0.3253,0.3256,0.3242,0.3243,0.3244,0.3239,0.3216,0,0,0,0,0,0.2964,0.2987,0.3019,0.3042,0.3054,0.3079,0.3094,0.3106,0.3131,0.3141,0.3164,0.3188,0.3213,0.3229,0.3254,0.3283,0.3291,0.3295,0.3295,0.3296,0.3298,0.3314,0.3316,0.3295,0.3295,0.3295,0,0,0.2966,0.2989,0.3002,0.304,0.306,0.3083,0.3087,0.3111,0.3129,0.3145,0.3175,0.3192,0.3221,0.325,0.3265,0.3265,0.3305,0.3297,0.3297,0.3299,0.3316,0.3318,0.332,0.3296,0.3296,0.3296,0,0,0.2979,0.2999,0.3021,0.304,0.3069,0.3086,0.3091,0.3123,0.3135,0.3165,0.3178,0.3199,0.3241,0.3261,0.3277,0.3297,0.3306,0.3305,0.3308,0.3324,0.3326,0.3327,0.3334,0.3337,0.3307,0.3307,0.3307,0,0.2977,0.3012,0.3031,0.3054,0.3071,0.3086,0.3108,0.3126,0.3162,0.3173,0.3173,0.3226,0.3247,0.3282,0.3286,0.3299,0.3305,0.3301,0.3324,0.3326,0.3327,0.3335,0.3337,0.3307,0.3307,0.3307,0.3307,0,0.3007,0.3031,0.3045,0.3079,0.3097,0.312,0.3143,0.3159,0.3169,0.3186,0.3216,0.3241,0.3271,0.328,0.3291,0.3316,0.3316,0.3319,0.3319,0.3329,0.3336,0.3339,0.3306,0.3306,0.3306,0.3306,0,0,0.3014,0.3058,0.3063,0.3078,0.3111,0.313,0.3154,0.3183,0.3196,0.322,0.324,0.3276,0.3279,0.3297,0.331,0.3324,0.3338,0.3326,0.3327,0.3327,0.3368,0.3365,0.3367,0.3344,0.3345,0.3345,0.3365,0,0.3032,0.3074,0.3092,0.3126,0.3148,0.3163,0.3183,0.3206,0.3222,0.3243,0.3261,0.3286,0.3289,0.3299,0.3314,0.3334,0.3347,0.3332,0.3363,0.3364,0.3356,0.3371,0.3368,0.3386,0.3368,0.3369,0.3369,0,0.3058,0.3082,0.3118,0.3148,0.3159,0.3176,0.3204,0.3224,0.325,0.3261,0.3281,0.3293,0.3318,0.3316,0.3351,0.334,0.3354,0.3366,0.3367,0.3371,0.3367,0.3375,0.3392,0.3394,0.3373,0.3373,0.3373,0,0.3059,0.3101,0.3127,0.314,0.3176,0.3188,0.3204,0.323,0.3246,0.327,0.3281,0.3307,0.3322,0.3343,0.3362,0.3359,0.3395,0.3395,0.3405,0.3405,0.3412,0.3412,0.3431,0.3421,0.3421,0.3421,0.3421,0,0.3077,0.3099,0.3128,0.3145,0.3169,0.3189,0.3213,0.323,0.3252,0.3272,0.3287,0.3305,0.333,0.3352,0.3367,0.3393,0.34,0.341,0.3413,0.3408,0.3407,0.3418,0.3417,0.3422,0.3422,0.3421,0.3421,0,0.3083,0.3103,0.3133,0.3165,0.3173,0.319,0.3217,0.3233,0.325,0.3275,0.3282,0.3309,0.3335,0.3356,0.3391,0.3401,0.3429,0.3433,0.342,0.3422,0.3431,0.343,0.3458,0.3463,0.345,0.345,0.345,0,0.3093,0.311,0.3143,0.3157,0.3172,0.3195,0.3211,0.3232,0.3248,0.3279,0.3292,0.3319,0.3342,0.3383,0.3406,0.3432,0.3437,0.3445,0.3441,0.3435,0.3437,0.3436,0.3438,0.3446,0.3446,0.3446,0.3446,0,0.3108,0.3118,0.314,0.3167,0.3186,0.3208,0.323,0.3241,0.3265,0.3283,0.331,0.3327,0.3362,0.3389,0.3418,0.3434,0.3444,0.3447,0.3451,0.3445,0.3437,0.3442,0.3421,0.3446,0.3446,0.3446,0.3446,0.3446,0.3116,0.3132,0.3157,0.3182,0.3201,0.3221,0.3238,0.3257,0.3279,0.3309,0.332,0.3347,0.3373,0.3412,0.3429,0.3451,0.3452,0.3457,0.3459,0.346,0.3459,0.3433,0.3456,0.3456,0.3456,0.3456,0.3456,0,0.3133,0.315,0.3172,0.3203,0.3222,0.3229,0.3254,0.327,0.3294,0.3317,0.3339,0.3369,0.3395,0.342,0.3447,0.346,0.3465,0.3466,0.3465,0.3469,0.3457,0.3451,0.3461,0.3461,0.3461,0.3461,0.3461,0.3461,0.3143,0.317,0.3182,0.3218,0.3235,0.3262,0.3275,0.3294,0.3312,0.3346,0.3367,0.3383,0.3406,0.3435,0.3459,0.3465,0.3475,0.3475,0.3482,0.3471,0.347,0.3469,0.3463,0.3477,0.3477,0.3493,0.3493,0.3493]},{"header":{"parameterUnit":"m.s-1","parameterCategory":1,"la1":30.2991,"la2":30.254,"lo1":-89.0895,"lo2":-89.0444,"dy":0.0017,"dx":0.0017,"nx":28,"ny":28,"refTime":"2025-05-24T21:00:00:Z","depth":0,"parameterNumber":3,"parameterNumberName":"V-component_of_WINDS"},"data":[0,0,0,0,0,0,0,0,0,0,0,0,0,0,0,0,0,0,0,0,0,0,0,0,0,0,0,0,0,0,0,0,0,0,0,0,0,0,0,0,0,0,0,0,0,0,0,0,0,0,0,0,0,0,0,0,0,0,1.703,1.703,0,1.7042,1.7042,1.7043,1.7037,1.7036,1.7036,1.7036,1.7046,1.7047,1.7047,0,0,0,0,0,0,0,0,0,0,0,0,0,1.6999,1.7,1.703,1.703,1.703,1.7042,1.7042,1.7043,1.7037,1.7036,1.7036,1.7035,1.7046,1.7047,1.7047,0,0,0,0,0,0,0,0,0,0,0,0,0,1.7012,1.7,1.703,1.7029,1.7029,1.7042,1.7042,1.7043,1.7037,1.7036,1.7036,1.7035,1.7046,1.7047,1.7048,1.7062,0,0,1.705,1.7051,0,0,0,0,0,0,0,0,1.7011,1.7013,1.7029,1.7029,1.7029,1.7037,1.7036,1.7049,1.7037,1.7034,1.7036,1.7035,1.7044,1.7045,1.7048,1.7063,1.7063,1.705,1.7051,1.7051,1.7051,0,0,0,0,0,0,0,1.7011,1.7013,1.7035,1.7029,1.7029,1.7027,1.7028,1.7038,1.7041,1.7034,1.7033,1.7035,1.7043,1.7047,1.7048,1.7063,1.705,1.7051,1.7051,1.7052,1.7091,1.7092,0,0,0,0,0,0,1.701,1.7012,1.7034,1.7035,1.7019,1.7028,1.7029,1.7035,1.7041,1.7041,1.7035,1.7035,1.7046,1.7047,1.7048,1.7066,1.7051,1.7052,1.7052,1.7091,1.7091,1.7092,0,0,0,0,0,0,1.7009,1.7012,1.7034,1.7023,1.7026,1.7029,1.7035,1.7036,1.7039,1.7042,1.7042,1.7039,1.7045,1.7047,1.7059,1.7067,1.7052,1.7053,1.709,1.7091,1.7092,1.7102,0,0,0,0,0,0,1.7008,1.7012,1.7018,1.7024,1.7027,1.7045,1.7036,1.7036,1.7041,1.704,1.7045,1.7046,1.7045,1.7058,1.706,1.7068,1.7054,1.7089,1.709,1.7091,1.7101,1.7103,1.7105,0,0,0,0,0,1.7007,1.702,1.7018,1.7021,1.7034,1.7045,1.7047,1.7047,1.7042,1.7047,1.7049,1.7045,1.7065,1.7059,1.7061,1.7069,1.7089,1.709,1.7091,1.71,1.7103,1.7105,0,0,0,0,0,0,1.7014,1.702,1.7019,1.7033,1.7039,1.7044,1.7052,1.7049,1.7056,1.7055,1.7054,1.7055,1.7067,1.7069,1.7062,1.7084,1.7076,1.7078,1.7082,1.7085,1.7087,1.7086,1.7054,0,0,0,0,0,1.7017,1.7026,1.7031,1.7043,1.7046,1.7049,1.7053,1.7053,1.7058,1.706,1.7063,1.7068,1.7075,1.708,1.7087,1.7101,1.7103,1.7108,1.711,1.7112,1.7113,1.7121,1.7124,1.7096,1.7096,1.7096,0,0,1.7023,1.7028,1.7034,1.7045,1.7049,1.7058,1.705,1.706,1.7066,1.7061,1.7073,1.7075,1.7081,1.7094,1.71,1.7096,1.7121,1.7113,1.7114,1.7115,1.7123,1.7125,1.7128,1.7097,1.7097,1.7096,0,0,1.704,1.7044,1.7056,1.706,1.7067,1.7069,1.7071,1.7077,1.7079,1.7091,1.7087,1.7094,1.7107,1.7111,1.7115,1.7134,1.713,1.7136,1.7146,1.7154,1.7156,1.7158,1.7165,1.7167,1.7137,1.7137,1.7137,0,1.7047,1.7061,1.7061,1.7072,1.7077,1.7073,1.7084,1.7089,1.7097,1.71,1.7096,1.7112,1.7116,1.713,1.7135,1.7138,1.7141,1.7135,1.7156,1.7158,1.716,1.7166,1.7169,1.7138,1.7138,1.7138,1.7138,0,1.7069,1.7079,1.7087,1.7096,1.7102,1.7113,1.7114,1.712,1.7119,1.7121,1.7133,1.7137,1.7145,1.7149,1.7147,1.7163,1.716,1.7156,1.7148,1.7163,1.7169,1.7172,1.7139,1.7139,1.7139,1.7138,0,0,1.7089,1.71,1.7103,1.7107,1.7115,1.7122,1.7132,1.7141,1.7146,1.7152,1.7161,1.7172,1.7168,1.7172,1.7171,1.7178,1.7193,1.7173,1.7173,1.7177,1.7211,1.7215,1.7218,1.7191,1.7192,1.7192,1.7211,0,1.7107,1.7126,1.7127,1.7144,1.7153,1.7151,1.716,1.7165,1.7167,1.7174,1.7176,1.7185,1.7179,1.7181,1.7188,1.719,1.72,1.7189,1.7199,1.7199,1.7198,1.7221,1.7224,1.7242,1.7213,1.7214,1.7214,0,1.7129,1.7137,1.7156,1.7163,1.7167,1.7175,1.7183,1.719,1.7196,1.7197,1.7203,1.7201,1.7211,1.7203,1.7217,1.7209,1.7213,1.7215,1.7216,1.7217,1.7208,1.7223,1.7247,1.725,1.7218,1.7217,1.7217,0,1.7143,1.7158,1.7171,1.7175,1.7183,1.7189,1.7193,1.7198,1.7204,1.7211,1.7214,1.7222,1.7226,1.7232,1.7232,1.7226,1.7246,1.7238,1.7247,1.7247,1.7252,1.7252,1.7278,1.7254,1.7254,1.7254,1.7254,0,1.7162,1.7174,1.7178,1.7186,1.7198,1.7199,1.7211,1.7214,1.722,1.7228,1.7226,1.7233,1.7233,1.7241,1.7241,1.7253,1.7255,1.7256,1.7256,1.7256,1.7256,1.7259,1.7258,1.7255,1.7255,1.7254,1.7254,0,1.7179,1.7182,1.7197,1.7204,1.7206,1.7215,1.7221,1.7228,1.723,1.7241,1.7243,1.7246,1.7255,1.7257,1.7267,1.7267,1.7281,1.728,1.7279,1.7279,1.7289,1.7288,1.7318,1.7322,1.7295,1.7295,1.7296,0,1.7192,1.7201,1.7209,1.7215,1.7219,1.7229,1.7234,1.7236,1.7242,1.725,1.7256,1.7265,1.7272,1.7287,1.7289,1.7297,1.7296,1.7306,1.7297,1.7298,1.7297,1.7296,1.7297,1.7308,1.7308,1.7308,1.7308,0,1.7213,1.7215,1.7223,1.7233,1.724,1.7248,1.7254,1.7259,1.7261,1.7268,1.7278,1.7283,1.7294,1.7303,1.7311,1.7314,1.7312,1.7311,1.7314,1.7315,1.7314,1.7315,1.7284,1.7311,1.731,1.731,1.731,1.731,1.7229,1.7237,1.7244,1.7254,1.726,1.7267,1.7274,1.7278,1.7286,1.7296,1.7296,1.7307,1.7313,1.7323,1.7327,1.7335,1.7331,1.7335,1.7336,1.7337,1.7338,1.7313,1.7336,1.7336,1.7336,1.7336,1.7336,0,1.725,1.7255,1.7265,1.7275,1.7283,1.7281,1.7289,1.7295,1.7305,1.7311,1.7319,1.733,1.7339,1.7342,1.7351,1.7357,1.7356,1.7359,1.7359,1.7359,1.734,1.7338,1.736,1.736,1.736,1.736,1.736,1.736,1.7263,1.7277,1.7279,1.7295,1.73,1.7311,1.7316,1.7322,1.7327,1.734,1.7348,1.7351,1.7356,1.7365,1.7373,1.7373,1.7377,1.738,1.7381,1.7363,1.7361,1.7358,1.7356,1.7381,1.7381,1.7399,1.7399,1.7399]}]]